This is the latest recevied weather packets stored in our database for station/object LU1MQF-13. If no packets are shown the sender has not sent any weather packets the latest 10 day(s).
| Time | Temp. | Humidity | Pressure | Rain* | Wind** | Luminosity | Snow |
|---|---|---|---|---|---|---|---|
| 1777912926 | 22.22° C | 38% | 931.4 hPa | - | - | - | - |
| 1777912026 | 21.11° C | 39% | 931.8 hPa | - | - | - | - |
| 1777911126 | 21.11° C | 40% | 931.9 hPa | - | - | - | - |
| 1777910226 | 21.11° C | 38% | 932.2 hPa | - | - | - | - |
| 1777909326 | 20° C | 37% | 932.2 hPa | - | - | - | - |
| 1777908426 | 20° C | 39% | 932.5 hPa | - | - | - | - |
| 1777907526 | 18.89° C | 40% | 932.8 hPa | - | - | - | - |
| 1777906626 | 18.89° C | 40% | 932.8 hPa | - | - | - | - |
| 1777905726 | 18.89° C | 44% | 932.9 hPa | - | - | - | - |
| 1777904826 | 17.78° C | 41% | 933.2 hPa | - | - | - | - |
| 1777903926 | 17.22° C | 40% | 933.3 hPa | - | - | - | - |
| 1777903026 | 17.22° C | 41% | 933.3 hPa | - | - | - | - |
| 1777902125 | 17.22° C | 41% | 933.4 hPa | - | - | - | - |
| 1777901226 | 16.11° C | 41% | 933.5 hPa | - | - | - | - |
| 1777900326 | 15° C | 41% | 933.5 hPa | - | - | - | - |
| 1777899426 | 15° C | 41% | 933.4 hPa | - | - | - | - |
| 1777898525 | 13.89° C | 41% | 933.2 hPa | - | - | - | - |
| 1777897626 | 13.89° C | 41% | 933.3 hPa | - | - | - | - |
| 1777896725 | 13.89° C | 41% | 933.1 hPa | - | - | - | - |
| 1777895826 | 13.89° C | 42% | 933 hPa | - | - | - | - |
| 1777894925 | 12.78° C | 42% | 932.8 hPa | - | - | - | - |
| 1777894026 | 12.78° C | 42% | 932.8 hPa | - | - | - | - |
| 1777893126 | 12.78° C | 42% | 932.8 hPa | - | - | - | - |
| 1777892225 | 12.78° C | 43% | 932.5 hPa | - | - | - | - |
| 1777891325 | 13.89° C | 44% | 932.3 hPa | - | - | - | - |
* Rain since midnight (hover to see other rain measurements)
** Current wind speed in m/s (hover to see current wind gust speed)